Location: Unspecified
(52.4292°N, 19.3359°E)
Time: 01:09:46
(UTC+02:00)

Altair - Pass Details

Date: 27 May 2024
Orbit: 1502 x 1682 km, 47.2° (Epoch: 20 June)

Event Time Altitude Azimuth Distance (km) Brightness Sun altitude
Rises 08:07:15 0° 194° (SSW) 4,761 10.0 30.0°
Reaches altitude 10° 08:11:06 10° 181° (S) 3,809 9.7 30.6°
Maximum altitude 08:18:12 24° 133° (SE) 2,936 10.1 31.7°
Drops below altitude 10° 08:25:28 10° 86° (E) 3,915 11.0 32.8°
Sets 08:29:27 0° 73° (ENE) 4,923 11.0 33.4°
